User: anonymous   Login
Location: ??????
(42.0089°N, 44.3281°E)
Time: 02:53:52
(UTC+00:00)
Language:

Cosmos 1980 Rocket - Orbit

View from above orbital plane
View from above orbital plane
View from above satellite
View from above satellite

Ground track
Ground track

The orbit data is extracted from the following two-line orbital elements,

1 19650U 88102B   22021.57921635 -.00000081  00000-0 -16999-4 0  9994
2 19650  70.9997  83.7020 0013212 155.5673 204.6079 14.15814580713416
Epoch (UTC): 21 January 2022 13:54:04
Eccentricity: 0.0013212
inclination: 70.9997°
perigee height: 830 km
apogee height: 849 km
right ascension of ascending node: 83.7020°
argument of perigee: 155.5673°
revolutions per day: 14.15814580
mean anomaly at epoch: 204.6079°
orbit number at epoch: 71341

The dashed part of the orbit path shows where the satellite is in the earth's shadow,  

DLR